Location: Columbia
(38.9520°N, 92.3340°W)
Time: 06:22:42
(UTC-05:00)

Cosmos 1603 - Visible Passes

Search period start: 31 July 2015 00:00
Search period end: 10 August 2015 00:00
Orbit: 832 x 859 km, 71.0° (Epoch: 31 July)

Date Brightness Start Highest point End Pass type
(mag) Time Alt. Az. Time Alt. Az. Time Alt. Az.
31 Jul 4.4 21:48:37 10° NNW 21:54:02 49° WSW 21:58:57 12° S visible
01 Aug 4.4 21:34:43 10° NNW 21:40:09 51° WSW 21:45:31 10° S visible
02 Aug 4.4 21:20:49 10° NNW 21:26:17 53° WSW 21:31:41 10° S visible
03 Aug 4.4 21:06:56 10° NNW 21:12:25 54° WSW 21:17:50 10° S visible
04 Aug 4.4 20:53:02 10° NNW 20:58:33 56° WSW 21:03:59 10° S visible
05 Aug 4.3 20:39:09 10° NNW 20:44:40 58° WSW 20:50:07 10° S visible
